Regional Weather Roundup
Issued by NWS

Home | Current Version | Previous Version | Text Only | Print | Product List | Glossary On
Versions: 1 2 3 4 5 6 7 8 9 10 11 12 13 14 15 16 17 18 19 20 21 22 23 24 25 26 27 28 29 30 31 32 33 34 35 36 37 38 39 40 41 42 43 44 45 46 47 48 49 50
000
ASUS45 KSLC 180510
RWRUT

UTAH REGIONAL WEATHER ROUNDUP
NATIONAL WEATHER SERVICE SALT LAKE CITY UT
1100 PM MDT WED SEP 17 2014

UTZ001>011-023>025-180600-

NORTHERN UTAH

CITY           SKY/WX    TMP DP  RH WIND       PRES   REMARKS
HILL AFB       CLEAR     76  42  29 SE15      29.92S
LOGAN          CLEAR     70  46  42 S13       29.90R
OGDEN          CLEAR     75  43  31 S10       29.88F
PROVO AIRPORT  CLEAR     75  45  33 SE13      29.94R
SALT LAKE CITY PTCLDY    78  40  25 SE12      29.88S
VERNAL         PTCLDY    62  41  46 W6        30.04S
WENDOVER       PTCLDY    77  37  24 W6        29.85R
HEBER CITY     CLEAR     61  41  48 S3        30.05S
WEST JORDAN    CLEAR     72  41  33 SW5       29.93S

$$

UTZ012>022-026-027-180600-

SOUTHERN UTAH

CITY           SKY/WX    TMP DP  RH WIND       PRES   REMARKS
BRYCE CANYON   CLEAR     48  44  86 SW5       30.24S
CEDAR CITY     CLEAR     63  51  65 S6        30.06R
MILFORD        CLEAR     70  48  45 S12       30.00R
MOAB/CYNLANDS  CLEAR     72  47  40 SE7       29.97R
PRICE          CLEAR     70  35  27 W5        30.08R
ST GEORGE      CLEAR     79  55  44 E9        29.87S
KANAB            N/A     64  46  52 NE5       30.06S

$$

REGIONAL REPORTS     COLORADO/ARIZONA

CITY           SKY/WX    TMP DP  RH WIND       PRES   REMARKS
CRAIG, CO      CLEAR     50  40  68 CALM      30.14R
GRAND JUNCTION CLEAR     69  37  30 E6        30.00R
RIFLE          CLEAR     63  39  41 E6        30.07R
MONTROSE       PTCLDY    66  44  45 SE10      30.11R
CORTEZ         MOCLDY    53  51  93 CALM      30.16S
PAGE, AZ       CLEAR     74  57  55 SW3       29.99S
GRAND CANYON   CLEAR     55  47  74 CALM      30.16F
KINGMAN        CLEAR     71  61  70 SE3       29.92R
FLAGSTAFF      CLEAR     54  52  93 CALM      30.19S

$$

REGIONAL REPORTS    NEVADA/IDAHO/WYOMING

CITY           SKY/WX    TMP DP  RH WIND       PRES   REMARKS
LAS VEGAS, NV  CLEAR     89  59  36 S14       29.75R
ELY            CLEAR     61  45  55 S10       30.06R
ELKO           PTCLDY    71  43  36 VRB3      29.89R
POCATELLO, ID  CLEAR     75  37  25 S10       29.87S
BURLEY         LGT RAIN  75  49  39 W15G24    29.85R
EVANSTON, WY   PTCLDY    63  39  41 S6        30.15S
ROCK SPRINGS   CLEAR     63  34  33 S6        30.14S

$$



USA.gov is the U.S. government's official web portal to all federal, state and local government web resources and services.